Overview Statistics Trail Chart Weather Telemetry Raw packets
 

This is the latest recevied weather packets stored in our database for station/object KSL2-WX. If no packets are shown the sender has not sent any weather packets the latest 10 day(s).

<< 5 6 7 8 9 10 >>
Time Temp. Humidity Pressure Rain* Wind** Luminosity Snow
1788052639 15° C 87% 1016 hPa - - - -
1788049040 15° C 91% 1016.1 hPa - - - -
1788045439 15° C 91% 1016.1 hPa - - - -
1788041839 15° C 90% 1016.3 hPa - - - -
1788038239 15.56° C 89% 1016.7 hPa - - - -
1788034639 15.56° C 87% 1016.8 hPa - - - -
1788031039 15.56° C 85% 1017.1 hPa - - - -
1788027439 15.56° C 81% 1017.4 hPa - - - -
1788023840 15.56° C 83% 1016.7 hPa - - - -
1788020239 15.56° C 81% 1016 hPa - - - -
1788016639 16.67° C 71% 1016.1 hPa - - - -
1788013040 16.67° C 72% 1016.5 hPa - - - -
1788009439 16.67° C 69% 1016.8 hPa - - - -
1788005840 17.22° C 69% 1017 hPa - - - -
1788002240 17.78° C 69% 1016.5 hPa - - - -
1787998639 19.44° C 63% 1016 hPa - - - -
1787995039 20° C 58% 1015.4 hPa - - - -
1787991439 19.44° C 58% 1015.4 hPa - - - -
1787987839 18.89° C 62% 1016 hPa - - - -
1787984239 18.33° C 64% 1016.1 hPa - - - -
1787980639 17.78° C 62% 1015.8 hPa - - - -
1787977039 17.78° C 57% 1015.3 hPa - - - -
1787973438 16.11° C 60% 1015.8 hPa - - - -
1787969838 16.11° C 60% 1015.5 hPa - - - -
1787966239 16.11° C 61% 1015.8 hPa - - - -

* Rain since midnight (hover to see other rain measurements)
** Current wind speed in m/s (hover to see current wind gust speed)